Location: Abraham Lincoln Continuation High School
(33.9711°N, 117.3662°W)
Time: 11:10:19
(UTC+00:00)

Cosmos 1680 Rocket - Pass Details

Date: 24 January 2021
Orbit: 761 x 780 km, 74.1° (Epoch: 08 March)

Event Time Altitude Azimuth Distance (km) Brightness Sun altitude
Rises 02:34:58 0° 344° (NNW) 3,235 6.8 -17.3°
Reaches altitude 10° 02:37:21 10° 346° (NNW) 2,303 6.0 -17.8°
Maximum altitude 02:42:35 79° 73° (ENE) 780 3.3 -18.8°
Drops below altitude 10° 02:47:45 10° 160° (SSE) 2,283 5.8 -19.9°
Sets 02:50:07 0° 161° (SSE) 3,204 6.6 -20.4°
